Location: Newark
(34.0131°N, 4.3314°W)
Time: 07:21:12
(UTC+00:00)

Explorer 11/Cluster Stage 4 - All Passes

Search period start: 23 October 2019 00:00
Search period end: 02 November 2019 00:00
Orbit: 467 x 1259 km, 28.8° (Epoch: 22 October)

Date Brightness Start Highest point End Pass type
(mag) Time Alt. Az. Time Alt. Az. Time Alt. Az.
23 Oct - 08:07:05 10° SW 08:10:15 25° SSE 08:13:16 10° ESE daylight
23 Oct - 09:54:44 10° WSW 09:58:05 36° S 10:01:34 10° ESE daylight
23 Oct - 11:42:49 10° WSW 11:45:59 26° SSW 11:49:29 10° SE daylight
23 Oct - 13:32:43 10° SW 13:33:57 11° SSW 13:35:15 10° S daylight
24 Oct - 06:09:52 10° S 06:11:49 13° SSE 06:13:40 10° SE daylight
24 Oct - 07:56:19 10° SW 07:59:43 28° S 08:02:53 10° ESE daylight
24 Oct - 09:44:13 10° WSW 09:47:35 35° S 09:50:59 10° ESE daylight
24 Oct - 11:32:30 10° WSW 11:35:26 22° SSW 11:38:36 10° SE daylight
25 Oct - 05:58:25 10° SSW 06:01:14 16° SSE 06:03:48 10° ESE visible
25 Oct - 07:45:34 10° SW 07:49:11 31° S 07:52:29 10° ESE daylight
25 Oct - 09:33:41 10° WSW 09:37:04 34° S 09:40:24 10° ESE daylight
25 Oct - 11:22:14 10° WSW 11:24:53 19° SSW 11:27:41 10° SSE daylight
26 Oct - 05:47:10 10° SSW 05:50:39 20° SSE 05:53:44 10° ESE visible
26 Oct - 07:34:48 10° WSW 07:38:39 34° S 07:42:04 10° ESE daylight
26 Oct - 09:23:09 10° WSW 09:26:32 33° S 09:29:49 10° ESE daylight
26 Oct - 11:12:01 10° WSW 11:14:19 16° SSW 11:16:42 10° SSE daylight
27 Oct - 05:36:01 10° SW 05:40:04 24° SSE 05:43:33 10° ESE visible
27 Oct - 07:24:02 10° WSW 07:28:07 37° S 07:31:39 10° ESE daylight
27 Oct - 09:12:35 10° WSW 09:16:01 31° S 09:19:15 10° SE daylight
27 Oct - 11:01:56 10° SW 11:03:44 13° SSW 11:05:35 10° S daylight
28 Oct - 03:38:45 10° S 03:41:13 13° SSE 03:43:30 10° SE visible
28 Oct - 05:24:55 10° SW 05:29:28 28° SSE 05:33:17 10° ESE visible
28 Oct - 07:13:16 10° WSW 07:17:34 40° S 07:21:15 10° ESE daylight
28 Oct - 09:02:00 10° WSW 09:05:29 29° SSW 09:08:41 10° SE daylight
28 Oct - 10:52:06 10° SW 10:53:09 11° SSW 10:54:12 10° S daylight
29 Oct - 03:26:51 10° SSW 03:30:33 16° SSE 03:33:51 10° ESE visible
29 Oct - 05:13:52 10° SW 05:18:52 32° SSE 05:22:58 10° ESE visible
29 Oct - 07:02:28 10° WSW 07:07:01 42° S 07:10:49 10° ESE daylight
29 Oct - 08:51:26 10° WSW 08:54:55 27° SSW 08:58:06 10° SE daylight
30 Oct - 03:15:16 10° SSW 03:19:51 20° SSE 03:23:51 10° ESE visible
30 Oct - 05:02:50 10° SW 05:08:14 36° S 05:12:38 10° ESE visible
30 Oct - 06:51:40 10° WSW 06:56:27 43° S 07:00:24 10° ESE daylight
30 Oct - 08:40:49 10° WSW 08:44:21 26° SSW 08:47:30 10° SE daylight
31 Oct - 03:03:50 10° SSW 03:09:09 23° SSE 03:13:42 10° ESE visible
31 Oct - 04:51:49 10° WSW 04:57:36 41° S 05:02:15 10° ESE visible
31 Oct - 06:40:51 10° WSW 06:45:52 44° S 06:49:57 10° ESE daylight
31 Oct - 08:30:13 10° WSW 08:33:45 24° SSW 08:36:54 10° SE daylight
01 Nov - 01:07:53 10° SSE 01:09:52 11° SSE 01:11:47 10° SE night (unlit)
01 Nov - 02:52:29 10° SW 02:58:24 27° SSE 03:03:26 10° ESE visible
01 Nov - 04:40:49 10° WSW 04:46:56 45° S 04:51:51 10° ESE visible
01 Nov - 06:30:01 10° WSW 06:35:16 44° S 06:39:30 10° ESE daylight
01 Nov - 08:19:36 10° WSW 08:23:08 22° SSW 08:26:16 10° SSE daylight
